Miscellaneous Local Product
Issued by NWS Hastings, NE

Home | Current Version | Previous Version | Graphics & Text | Print | Product List | Glossary On
Versions: 1 2 3 4 5 6 7 8 9 10 11 12 13 14 15 16 17 18 19 20 21 22 23 24 25 26 27 28 29 30 31 32 33 34 35 36 37 38 39 40 41 42 43 44 45 46 47 48 49 50
602
AXUS43 KGID 071202
MISGRI

GID CWA HOURLY WEATHER ROUNDUP
NATIONAL WEATHER SERVICE HASTINGS NE
600 AM CST SUN FEB 07 2016

NOTE: "FAIR" INDICATES FEW OR NO CLOUDS BELOW 12,000 FEET WITH NO
SIGNIFICANT WEATHER AND/OR OBSTRUCTIONS TO VISIBILITY.

...SOUTH CENTRAL NEBRASKA...

CITY           SKY/WX    TMP DP  RH WIND       PRES   REMARKS
GRAND ISLAND   CLOUDY    37  23  56 NW22      30.02R WCI  26
HASTINGS       CLOUDY    33  24  69 NW12      30.02R WCI  24
ORD            PTCLDY    37  22  54 NW16      30.03R WCI  28
YORK           PTCLDY    32  27  80 NW10      29.99S WCI  24
AURORA         PTCLDY    33  25  70 NW13      30.00R WCI  24
LEXINGTON      CLOUDY    31  25  76 W15       30.07R WCI  21
HOLDREGE       PTCLDY    33  25  70 W13       30.07R WCI  24
HEBRON         CLOUDY    36  28  73 W7        30.03R WCI  30

...NEBRASKA PANHANDLE...

CITY           SKY/WX    TMP DP  RH WIND       PRES   REMARKS
CHADRON        CLOUDY    35  21  56 W15       30.15S WCI  25
ALLIANCE       CLOUDY    32  23  69 NW15      30.13R WCI  22
SCOTTSBLUFF    CLOUDY    31  21  66 NW14      30.19R WCI  21
SIDNEY         MOCLDY    25  16  68 NW15      30.17R WCI  13

...WESTERN AND NORTH CENTRAL NEBRASKA...

CITY           SKY/WX    TMP DP  RH WIND       PRES   REMARKS
VALENTINE      CLOUDY    37  22  54 NW20G32   30.04S WCI  27
AINSWORTH      CLOUDY    37  24  59 NW15G21   30.03S WCI  27
ONEILL         CLEAR     36  24  64 W14       30.00S WCI  27
BROKEN BOW     CLOUDY    36  25  64 NW17      30.05R WCI  26
IMPERIAL       CLEAR     32  17  54 NW20G25   30.14R WCI  20
NORTH PLATTE   CLOUDY    31  22  69 NW13      30.10R WCI  21
MCCOOK         CLEAR     29  22  75 W9        30.12R WCI  20

...EASTERN NEBRASKA...

CITY           SKY/WX    TMP DP  RH WIND       PRES   REMARKS
NORFOLK        CLEAR     37  24  59 W15       29.96S WCI  28
SO SIOUX CITY  CLEAR     39  25  57 NW16      29.90R WCI  30
TEKAMAH        CLOUDY    38  27  64 NW28G33   29.92F WCI  26
COLUMBUS       CLOUDY    37  19  48 NW23G29   29.97R WCI  26
ALBION         CLEAR     37  23  57 NW16      29.99S WCI  27
OMAHA EPPLEY   CLOUDY    39  26  59 W14       29.93F WCI  31
MILLARD        PTCLDY    40  27  60 NW9       29.95S WCI  34
LINCOLN        CLOUDY    36  25  64 NW6       30.00R WCI  31
NEBRASKA CITY  PTCLDY    35  28  76 NW9       29.96S WCI  27
BEATRICE       CLOUDY    34  27  77 NW10      30.00R WCI  26
FALLS CITY     CLOUDY    35  27  72 W14       29.98R WCI  26

...NORTHERN KANSAS...

CITY           SKY/WX    TMP DP  RH WIND       PRES   REMARKS
GOODLAND       CLOUDY    30  19  63 NW13      30.15R WCI  20
HILL CITY      CLOUDY    36  28  73 NW8       30.12R WCI  30
NORTON         SUNNY     34  25  69 W10       30.10R WCI  26
PHILLIPSBURG   CLOUDY    37  28  70 CALM      30.10R
BELOIT         CLEAR     34  28  80 W6        30.08R WCI  29
HAYS           CLOUDY    37  21  52 N6        30.10F WCI  33
RUSSELL        CLOUDY    37  29  72 NW8       30.09R WCI  31
CONCORDIA      CLOUDY    36  28  73 W8        30.05R WCI  30
SALINA         CLOUDY    37  27  67 W5        30.08R WCI  33
TOPEKA         CLOUDY    40  25  55 W9        30.02R WCI  34



USA.gov is the U.S. government's official web portal to all federal, state and local government web resources and services.